Location: Horowhenua
(40.7500°S, 175.3333°E)
Time: 05:43:45
(UTC+00:00)

Cosmos 1733 Rocket - Pass Details

Date: 28 January 2023
Orbit: 602 x 627 km, 82.5° (Epoch: 01 April)

Event Time Altitude Azimuth Distance (km) Brightness Sun altitude
Rises 14:55:24 0° 192° (SSW) 2,914 7.1 -22.3°
Reaches altitude 10° 14:57:39 10° 194° (SSW) 2,004 6.1 -22.0°
Maximum altitude 15:02:02 63° 275° (W) 702 3.0 -21.5°
Enters shadow 15:02:23 60° 300° (WNW) 717 3.0 -21.5°
